SL-14 DEB, 45301

Orbit data source: Space-Track

SL-14 DEB, 45301 is space debris in LEO originally from a launch on Thu, 15 Aug 1991 UTC launched from the Plesetsk Missile And Space Complex (PKMTR). Debris objects in space refer to the collection of defunct objects orbiting the Earth. Examples of debris include non-operational satellites, rocket bodies, and fragments generated from explosions, collisions, or faulty payload assembly.

Loading next visibility...
Identifier
45301, 1991-056AP
Orbit
LEO
Country
Flag of CISCIS
Related business
Manufacturer
Unknown
Mission
Spacecraft
Bus & Motor
Unknown
Mass
Unknown
Launch date (UTC)
1991-08-15 (35 years ago)
Launch vehicle
Unknown
Launch site
Plesetsk Missile And Space Complex (PKMTR)
Object type
Payload
Rocket body
Debris
Shape & HBR
Unknown shape, 0.6 m
Radar Cross Section
Medium (>0.1 m² and <1 m²)

Expand to show TLE details & history
Last TLE update: 7 hours ago

TLE from 7 hours ago
0 SL-14 DEB
1 45301U 91056AP  26126.81283591  .00002136  00000-0  25893-2 0  9999
2 45301  82.4904  52.8534 0147818 146.2569 214.8097 13.61332346307318
Epoch: 2026-05-06T19:30Z
TLE epoch observation values (Epoch: 2026-05-06T19:30:29.022Z)
Latitude
-0.00001°
Longitude
-104.43548°
Altitude
1,124.18 km
Speed
7.246 km/s
True Right ascension
03h 31m 24s
True Declination
0° 00' 00"
Sunlit
Object was in daylight at epoch
Visualization orbit readout
Latitude
Unknown
Longitude
Unknown
Altitude
Unknown
Speed
Unknown
Apparent Right ascension
Unknown
Apparent Declination
Unknown
Sunlit
N/A
Visualization observer readout
Local Sidereal Time
10:07:01
Azimuth
Unknown
Elevation
Unknown
Doppler factor
Unknown
Orbital elements
Apogee altitude
1,137.515 km
Perigee altitude
918.562 km
Semi-major axis
7,406.176 km
Eccentricity
0.01478
Inclination
82.4904°
RAAN
52.8534°
Arg. of periapsis
146.2569°
True anomaly
213.85725°
Mean anomaly
214.8097°
Eccentric anomaly
214.33204°
Mean motion
3.40527 °/min
Orbital period
105.72 mins
BSTAR
0.0025893
Loading maneuver chart data...
Computing Atmospheric mass density...
Loading historical data...
Loading historical data...
Loading historical data...
Loading historical data...
Loading historical data...
Loading historical data...
Loading historical data...

Documentation

Showing up to 5 results
|